Regional Weather Roundup
Issued by NWS

Home | Current Version | Previous Version | Graphics & Text | Print | Product List | Glossary On
Versions: 1 2 3 4 5 6 7 8 9 10 11 12 13 14 15 16 17 18 19 20 21 22 23 24 25 26 27 28 29 30 31 32 33 34 35 36 37 38 39 40 41 42 43 44 45 46 47 48 49 50
000
ASUS45 KCYS 301510
RWRWY

WYOMING REGIONAL WEATHER ROUNDUP
NATIONAL WEATHER SERVICE CHEYENNE WY
800 AM MST FRI JAN 30 2015

NOTE:  "FAIR" INDICATES FEW OR NO CLOUDS BELOW 12,000 FEET
WITH NO SIGNIFICANT WEATHER AND/OR OBSTRUCTIONS TO VISIBILITY.

WYZ001-301600-
YELLOWSTONE NATIONAL PARK

CITY           SKY/WX    TMP DP  RH WIND       PRES   REMARKS
LK YELLOWSTONE   N/A     -4  -9  79 CALM      30.27F
W YELLOWSTONE  NOT AVBL

$$
WYZ002>013-054>058-071-098>099-301600-
NORTHERN WYOMING

CITY           SKY/WX    TMP DP  RH WIND       PRES   REMARKS
JACKSON        NOT AVBL
CODY           FAIR      23  16  74 CALM      30.21R
GREYBULL       FOG       24  22  91 CALM      30.25S VSB<1/4
WORLAND        FAIR      15  13  91 S7        30.23S WCI   5
SHERIDAN       FAIR      21  15  78 CALM      30.22R
BUFFALO        FAIR      33   5  30 W6        30.21R WCI  28
GILLETTE       FAIR      22  19  89 S3        30.19S
HULETT           N/A    N/A N/A N/A MISG        N/A
NEWCASTLE      FAIR      27  23  86 N3        30.20S

$$
WYZ014>020-022>026-101>103-301600-
CENTRAL WYOMING

CITY           SKY/WX    TMP DP  RH WIND       PRES   REMARKS
BIG PINEY      FAIR      17  14  88 CALM      30.21F
PINEDALE       FAIR      10   7  85 NW7       30.21F WCI   0
DUBOIS         FAIR      18   5  57 NW10      30.20S WCI   6
LANDER         FAIR      26  20  77 CALM      30.20F
RIVERTON       FAIR      27  23  85 W3        30.22S
CASPER         FAIR      30  26  85 W7        30.21S WCI  23
DOUGLAS        FAIR      25  22  88 S3        30.21F

$$
WYZ021-027>030-104>119-301600-
SOUTHERN WYOMING

CITY           SKY/WX    TMP DP  RH WIND       PRES   REMARKS
EVANSTON       CLOUDY    28  25  88 N5        30.16F WCI  23
FORT BRIDGER   FAIR      27  26  96 SE5       30.20F WCI  22
ROCK SPRINGS   CLOUDY    29  25  85 CALM      30.19F
DIXON          CLOUDY    34  32  92 CALM      30.23F
RAWLINS        CLOUDY    29  27  92 CALM      30.21F
SARATOGA       FAIR      32  28  86 S5        30.22S WCI  27
LARAMIE        MOCLDY    26  22  84 CALM      30.20S
CHEYENNE       FAIR      31  23  72 W7        30.18S WCI  24
TORRINGTON     FAIR      25  19  78 NW5       30.20F WCI  19
PINE BLUFFS    FAIR      27  23  86 CALM      30.20S

$$


USA.gov is the U.S. government's official web portal to all federal, state and local government web resources and services.